FW3182 Weather Reports


Display with metric or nautical units.
time (UTC)temp
F
wind
direction
speed
MPH
gust
MPH
rain 1hr
in
rain 24hr
in
rain mn
in
humidity
%
barometer
mb
20260905020204 86 159 0.0 0.0 0.00 0.00 0.00 59 1010.7
20260905015204 86 159 0.0 0.0 0.00 0.00 0.00 58 1010.5
20260905014703 87 159 0.0 0.0 0.00 0.00 0.00 58 1010.5
20260905013704 87 159 0.0 0.0 0.00 0.00 0.00 58 1010.4
20260905013204 87 159 0.0 0.0 0.00 0.00 0.00 57 1010.3
20260905012704 87 159 0.0 0.0 0.00 0.00 0.00 57 1010.3
20260905012203 88 159 0.0 0.0 0.00 0.00 0.00 56 1010.3
20260905011204 88 159 0.0 0.0 0.00 0.00 0.00 56 1010.0
20260905010204 89 159 0.0 0.0 0.00 0.00 0.00 55 1010.0
20260905005704 90 159 0.0 0.0 0.00 0.00 0.00 54 1009.9
20260905005203 90 159 0.0 0.0 0.00 0.00 0.00 53 1009.9
20260905004704 91 159 0.0 0.0 0.00 0.00 0.00 52 1009.9
20260905004204 91 159 0.0 0.0 0.00 0.00 0.00 51 1009.8
20260905003704 92 159 0.0 0.0 0.00 0.00 0.00 50 1009.8
20260905003204 93 159 0.0 0.0 0.00 0.00 0.00 49 1009.7
20260905002704 94 159 0.0 0.0 0.00 0.00 0.00 48 1009.7
20260905002203 94 159 0.0 0.0 0.00 0.00 0.00 47 1009.7
20260905001704 96 159 0.0 0.0 0.00 0.00 0.00 46 1009.6
20260905001204 96 134 0.0 0.0 0.00 0.00 0.00 45 1009.7
20260905000704 97 134 0.0 0.0 0.00 0.00 0.00 44 1009.7
20260905000204 98 134 0.0 0.0 0.00 0.00 0.00 44 1009.6
20260904235703 98 134 0.0 1.0 0.00 0.00 0.00 43 1009.6
20260904235204 99 204 0.0 2.0 0.00 0.00 0.00 42 1009.6
20260904234704 99 143 0.0 1.0 0.00 0.00 0.00 42 1009.6
20260904234203 99 49 0.0 1.0 0.00 0.00 0.00 42 1009.7
20260904233704 100 87 1.0 3.0 0.00 0.00 0.00 41 1009.6
20260904232703 99 214 1.0 1.0 0.00 0.00 0.00 42 1009.6
20260904231704 100 135 0.0 5.0 0.00 0.00 0.00 42 1009.6
20260904230704 99 97 0.0 3.0 0.00 0.00 0.00 42 1009.8
20260904230204 100 150 1.0 5.0 0.00 0.00 0.00 41 1009.7
20260904225703 99 186 1.0 3.0 0.00 0.00 0.00 42 1009.8
20260904225204 98 118 0.0 6.0 0.00 0.00 0.00 42 1009.8
20260904224704 98 176 2.0 6.0 0.00 0.00 0.00 43 1009.8
20260904224204 97 92 1.0 3.0 0.00 0.00 0.00 44 1009.9
20260904223704 97 135 0.0 1.0 0.00 0.00 0.00 43 1009.8
20260904223204 98 154 1.0 3.0 0.00 0.00 0.00 43 1009.8
20260904222704 98 187 1.0 3.0 0.00 0.00 0.00 43 1009.7
20260904222204 98 109 0.0 2.0 0.00 0.00 0.00 43 1009.8
20260904221704 99 180 1.0 3.0 0.00 0.00 0.00 42 1009.9
20260904221205 99 176 1.0 3.0 0.00 0.00 0.00 42 1009.9
20260904220204 101 127 1.0 5.0 0.00 0.00 0.00 41 1009.9
20260904215703 100 142 1.0 3.0 0.00 0.00 0.00 41 1009.9
20260904215204 100 303 0.0 3.0 0.00 0.00 0.00 41 1009.9
20260904214704 100 80 2.0 6.0 0.00 0.00 0.00 41 1010.0
20260904214203 100 122 3.0 6.0 0.00 0.00 0.00 41 1010.0
20260904213704 99 28 0.0 3.0 0.00 0.00 0.00 42 1010.0
20260904213203 99 170 4.0 12.0 0.00 0.00 0.00 41 1010.1
20260904212204 100 84 1.0 3.0 0.00 0.00 0.00 42 1010.0
20260904211704 99 167 0.0 3.0 0.00 0.00 0.00 43 1010.1
20260904211204 99 358 2.0 6.0 0.00 0.00 0.00 42 1010.2
20260904210704 99 126 1.0 6.0 0.00 0.00 0.00 43 1010.2
20260904210203 98 267 1.0 2.0 0.00 0.00 0.00 44 1010.3
20260904205704 97 222 0.0 0.0 0.00 0.00 0.00 44 1010.4
20260904204704 98 193 3.0 9.0 0.00 0.00 0.00 43 1010.5
20260904204204 98 152 4.0 10.0 0.00 0.00 0.00 43 1010.6
20260904203704 97 67 0.0 3.0 0.00 0.00 0.00 44 1010.5
20260904203204 98 51 1.0 3.0 0.00 0.00 0.00 43 1010.6
20260904202204 99 117 2.0 10.0 0.00 0.00 0.00 43 1010.5
20260904201703 98 92 1.0 6.0 0.00 0.00 0.00 44 1010.7
20260904201204 98 124 2.0 8.0 0.00 0.00 0.00 44 1010.9
20260904195704 99 41 2.0 8.0 0.00 0.00 0.00 44 1011.0
20260904195204 99 185 2.0 6.0 0.00 0.00 0.00 44 1011.1
20260904194704 98 161 1.0 8.0 0.00 0.00 0.00 45 1011.2
20260904194203 98 101 1.0 9.0 0.00 0.00 0.00 46 1011.1
20260904193703 97 216 1.0 5.0 0.00 0.00 0.00 45 1011.1
20260904192704 97 43 3.0 7.0 0.00 0.00 0.00 46 1011.2
20260904192204 97 142 1.0 2.0 0.00 0.00 0.00 46 1011.4
20260904191704 96 58 2.0 3.0 0.00 0.00 0.00 46 1011.4
20260904191203 97 76 1.0 2.0 0.00 0.00 0.00 45 1011.4
20260904190204 97 161 1.0 5.0 0.00 0.00 0.00 45 1011.6
20260904185704 98 209 6.0 9.0 0.00 0.00 0.00 45 1011.7
20260904185204 98 232 3.0 6.0 0.00 0.00 0.00 44 1011.7
20260904184703 97 80 1.0 3.0 0.00 0.00 0.00 48 1011.8
20260904184203 97 185 0.0 2.0 0.00 0.00 0.00 47 1011.9
20260904183704 97 164 1.0 3.0 0.00 0.00 0.00 46 1011.9
20260904183204 97 170 4.0 8.0 0.00 0.00 0.00 46 1011.9
20260904182204 97 274 2.0 8.0 0.00 0.00 0.00 45 1012.1
20260904181703 97 162 6.0 13.0 0.00 0.00 0.00 45 1012.1
20260904181204 97 211 4.0 8.0 0.00 0.00 0.00 46 1012.2
20260904180703 96 199 1.0 8.0 0.00 0.00 0.00 48 1012.2
20260904180204 97 67 2.0 5.0 0.00 0.00 0.00 47 1012.3
20260904175704 97 80 3.0 5.0 0.00 0.00 0.00 47 1012.4
20260904175204 96 111 2.0 12.0 0.00 0.00 0.00 48 1012.5
20260904174704 97 196 5.0 12.0 0.00 0.00 0.00 47 1012.5
20260904174204 96 91 1.0 7.0 0.00 0.00 0.00 48 1012.6
20260904173704 97 251 4.0 7.0 0.00 0.00 0.00 46 1012.7
20260904171704 96 224 2.0 6.0 0.00 0.00 0.00 50 1012.9
20260904171204 95 100 2.0 5.0 0.00 0.00 0.00 49 1013.0
20260904170704 95 125 3.0 8.0 0.00 0.00 0.00 49 1013.1
20260904165203 95 173 1.0 6.0 0.00 0.00 0.00 51 1013.2
20260904164704 94 191 1.0 6.0 0.00 0.00 0.00 52 1013.3
20260904163204 93 249 2.0 6.0 0.00 0.00 0.00 52 1013.2
20260904162704 93 230 2.0 8.0 0.00 0.00 0.00 52 1013.3
20260904162204 93 173 4.0 9.0 0.00 0.00 0.00 52 1013.4
20260904161704 93 185 4.0 7.0 0.00 0.00 0.00 53 1013.4
20260904161204 93 190 2.0 7.0 0.00 0.00 0.00 55 1013.3
20260904160703 93 240 4.0 9.0 0.00 0.00 0.00 55 1013.3
20260904160203 92 209 2.0 5.0 0.00 0.00 0.00 57 1013.3
20260904155704 92 234 2.0 3.0 0.00 0.00 0.00 57 1013.3
20260904155204 91 242 1.0 3.0 0.00 0.00 0.00 59 1013.3
20260904154704 91 250 3.0 8.0 0.00 0.00 0.00 58 1013.4
20260904154204 90 239 2.0 7.0 0.00 0.00 0.00 59 1013.5
20260904153703 90 193 5.0 9.0 0.00 0.00 0.00 60 1013.4
20260904153204 90 207 2.0 3.0 0.00 0.00 0.00 61 1013.4
20260904152704 89 274 2.0 8.0 0.00 0.00 0.00 62 1013.5
20260904152203 89 178 4.0 9.0 0.00 0.00 0.00 62 1013.6
20260904151704 89 246 3.0 5.0 0.00 0.00 0.00 63 1013.5
20260904150204 88 202 3.0 7.0 0.00 0.00 0.00 65 1013.5
20260904145203 88 245 2.0 6.0 0.00 0.00 0.00 65 1013.3
20260904144204 87 169 0.0 3.0 0.00 0.00 0.00 68 1013.5
20260904143703 87 186 0.0 1.0 0.00 0.00 0.00 69 1013.5
20260904142704 86 197 0.0 3.0 0.00 0.00 0.00 70 1013.4
20260904142204 86 182 1.0 3.0 0.00 0.00 0.00 70 1013.5
20260904141703 86 196 1.0 3.0 0.00 0.00 0.00 69 1013.5
20260904141203 86 211 0.0 0.0 0.00 0.00 0.00 70 1013.5
20260904140704 87 206 0.0 0.0 0.00 0.00 0.00 68 1013.4
20260904140204 88 197 0.0 0.0 0.00 0.00 0.00 67 1013.5
20260904134704 87 67 0.0 0.0 0.00 0.00 0.00 70 1013.6
20260904133704 86 66 0.0 0.0 0.00 0.00 0.00 71 1013.6
20260904133204 85 120 0.0 0.0 0.00 0.00 0.00 73 1013.5
20260904132703 84 120 0.0 0.0 0.00 0.00 0.00 77 1013.5
20260904132204 83 120 0.0 0.0 0.00 0.00 0.00 77 1013.4
20260904131704 82 120 0.0 0.0 0.00 0.00 0.00 79 1013.4
20260904130203 77 120 0.0 0.0 0.00 0.00 0.00 88 1013.3
20260904125204 73 120 0.0 0.0 0.00 0.00 0.00 91 1013.3
20260904124704 73 120 0.0 0.0 0.00 0.00 0.00 91 1013.3
20260904124204 73 120 0.0 0.0 0.00 0.00 0.00 91 1013.3
20260904123704 72 120 0.0 0.0 0.00 0.00 0.00 91 1013.2
20260904123204 72 120 0.0 0.0 0.00 0.00 0.00 91 1013.2
20260904122704 72 120 0.0 0.0 0.00 0.00 0.00 90 1013.2
20260904121704 73 120 0.0 0.0 0.00 0.00 0.00 90 1013.1
20260904121204 73 120 0.0 0.0 0.00 0.00 0.00 90 1013.0
20260904120704 73 120 0.0 0.0 0.00 0.00 0.00 90 1012.9
20260904120204 73 120 0.0 0.0 0.00 0.00 0.00 90 1012.9
20260904115704 73 120 0.0 0.0 0.00 0.00 0.00 90 1013.0
20260904115204 73 138 0.0 0.0 0.00 0.00 0.00 90 1012.9
20260904114704 73 137 0.0 0.0 0.00 0.00 0.00 89 1012.9
20260904113704 73 137 0.0 0.0 0.00 0.00 0.00 88 1012.9
20260904113203 74 138 0.0 0.0 0.00 0.00 0.00 88 1012.8
20260904112704 74 137 0.0 0.0 0.00 0.00 0.00 87 1012.8
20260904112204 74 137 0.0 0.0 0.00 0.00 0.00 87 1012.8
20260904111704 75 138 0.0 0.0 0.00 0.00 0.00 86 1012.7
20260904110704 75 138 0.0 0.0 0.00 0.00 0.00 86 1012.6
20260904105704 75 168 0.0 0.0 0.00 0.00 0.00 86 1012.4
20260904104704 74 196 0.0 1.0 0.00 0.00 0.00 86 1012.4
20260904103704 75 196 0.0 0.0 0.00 0.00 0.00 86 1012.5
20260904102704 74 196 0.0 0.0 0.00 0.00 0.00 86 1012.4
20260904102204 74 196 0.0 0.0 0.00 0.00 0.00 86 1012.4
20260904101203 74 196 0.0 0.0 0.00 0.00 0.00 87 1012.2
20260904100704 74 196 0.0 0.0 0.00 0.00 0.00 87 1012.2
20260904095704 74 196 0.0 0.0 0.00 0.00 0.00 86 1012.1
20260904095204 74 196 0.0 0.0 0.00 0.00 0.00 85 1012.1
20260904094204 75 196 0.0 0.0 0.00 0.00 0.00 85 1012.0
20260904093703 75 196 0.0 0.0 0.00 0.00 0.00 85 1012.0
20260904093204 75 196 0.0 0.0 0.00 0.00 0.00 85 1012.0
20260904092704 75 196 0.0 0.0 0.00 0.00 0.00 84 1011.9
20260904092204 75 196 0.0 1.0 0.00 0.00 0.00 84 1011.9
20260904091704 75 197 0.0 0.0 0.00 0.00 0.00 84 1011.9
20260904091204 75 197 0.0 0.0 0.00 0.00 0.00 83 1011.9
20260904090703 76 197 0.0 0.0 0.00 0.00 0.00 83 1011.9
20260904090204 76 197 0.0 0.0 0.00 0.00 0.00 83 1011.8
20260904085703 76 197 0.0 0.0 0.00 0.00 0.00 82 1011.8
20260904085204 76 197 0.0 0.0 0.00 0.00 0.00 82 1011.7
20260904084204 76 197 0.0 0.0 0.00 0.00 0.00 82 1011.6
20260904083704 76 197 0.0 1.0 0.00 0.00 0.00 82 1011.6
20260904082704 76 185 0.0 0.0 0.00 0.00 0.00 81 1011.6
20260904081204 77 118 0.0 0.0 0.00 0.00 0.00 80 1011.5
20260904080704 77 117 0.0 0.0 0.00 0.00 0.00 80 1011.4
20260904080204 77 117 0.0 1.0 0.00 0.00 0.00 79 1011.5
20260904075704 77 117 0.0 1.0 0.00 0.00 0.00 79 1011.6
20260904074705 77 112 0.0 1.0 0.00 0.00 0.00 79 1011.5
20260904074204 77 115 0.0 1.0 0.00 0.00 0.00 79 1011.5
20260904072704 77 190 0.0 0.0 0.00 0.00 0.00 79 1011.6
20260904072204 77 191 0.0 0.0 0.00 0.00 0.00 79 1011.7
20260904071704 78 191 0.0 0.0 0.00 0.00 0.00 79 1011.7
20260904071204 78 132 0.0 0.0 0.00 0.00 0.00 79 1011.7
20260904070704 78 131 0.0 0.0 0.00 0.00 0.00 78 1011.7
20260904070204 78 131 0.0 0.0 0.00 0.00 0.00 78 1011.8
20260904065704 78 131 0.0 0.0 0.00 0.00 0.00 78 1011.8
20260904065203 78 131 0.0 0.0 0.00 0.00 0.00 78 1011.9
20260904064204 78 131 0.0 0.0 0.00 0.00 0.00 78 1011.7
20260904063704 78 131 0.0 0.0 0.00 0.00 0.00 78 1011.7
20260904063203 78 131 0.0 0.0 0.00 0.00 0.00 78 1011.8
20260904062704 78 131 0.0 0.0 0.00 0.00 0.00 78 1011.8
20260904062204 78 131 0.0 0.0 0.00 0.00 0.00 78 1011.8
20260904061704 78 131 0.0 0.0 0.00 0.00 0.00 78 1011.8
20260904061204 78 131 0.0 0.0 0.00 0.00 0.00 78 1011.8
20260904060704 78 131 0.0 0.0 0.00 0.00 0.00 78 1011.9
20260904055704 78 131 0.0 0.0 0.00 0.00 0.00 77 1011.8
20260904054704 78 131 0.0 0.0 0.00 0.00 0.00 76 1011.7
20260904053704 79 131 0.0 0.0 0.00 0.00 0.00 76 1011.7
20260904053204 79 131 0.0 0.0 0.00 0.00 0.00 76 1011.6
20260904052703 79 131 0.0 0.0 0.00 0.00 0.00 75 1011.7
20260904052204 79 131 0.0 0.0 0.00 0.00 0.00 75 1011.6
20260904051703 79 131 0.0 0.0 0.00 0.00 0.00 74 1011.6
20260904051204 80 131 0.0 0.0 0.00 0.00 0.00 74 1011.5
20260904050703 80 131 0.0 0.0 0.00 0.00 0.00 74 1011.6
20260904050204 80 131 0.0 0.0 0.00 0.00 0.00 74 1011.6
20260904045704 80 131 0.0 0.0 0.00 0.00 0.00 73 1011.6
20260904045204 80 131 0.0 0.0 0.00 0.00 0.00 73 1011.5
20260904044704 80 131 0.0 0.0 0.00 0.00 0.00 72 1011.5
20260904044204 80 131 0.0 0.0 0.00 0.00 0.00 72 1011.4
20260904043704 80 131 0.0 0.0 0.00 0.00 0.00 72 1011.5
20260904043204 80 131 0.0 0.0 0.00 0.00 0.00 72 1011.4
20260904042204 81 131 0.0 0.0 0.00 0.00 0.00 71 1011.5
20260904041704 81 131 0.0 0.0 0.00 0.00 0.00 71 1011.5
20260904040704 81 131 0.0 0.0 0.00 0.00 0.00 70 1011.5
20260904040204 81 131 0.0 0.0 0.00 0.00 0.00 70 1011.5
20260904035705 81 131 0.0 0.0 0.00 0.00 0.00 70 1011.5
20260904035204 81 130 0.0 0.0 0.00 0.00 0.00 70 1011.5
20260904034705 81 130 0.0 0.0 0.00 0.00 0.00 70 1011.5
20260904034204 82 130 0.0 0.0 0.00 0.00 0.00 69 1011.5
20260904032704 82 120 0.0 0.0 0.00 0.00 0.00 68 1011.5
20260904032204 82 120 0.0 1.0 0.00 0.00 0.00 68 1011.5
20260904031704 82 77 0.0 0.0 0.00 0.00 0.00 68 1011.5
20260904031204 82 77 0.0 0.0 0.00 0.00 0.00 67 1011.5
20260904025704 83 181 0.0 1.0 0.00 0.00 0.00 67 1011.4
20260904025204 83 134 0.0 0.0 0.00 0.00 0.00 67 1011.4
20260904024704 83 134 0.0 0.0 0.00 0.00 0.00 66 1011.3
20260904024204 83 134 0.0 0.0 0.00 0.00 0.00 66 1011.3
20260904023704 83 134 0.0 0.0 0.00 0.00 0.00 66 1011.2
20260904023204 83 134 0.0 0.0 0.00 0.00 0.00 66 1011.1
20260904022204 83 134 0.0 0.0 0.00 0.00 0.00 65 1011.1
20260904021704 84 134 0.0 0.0 0.00 0.00 0.00 65 1011.0
20260904021204 84 134 0.0 0.0 0.00 0.00 0.00 65 1010.9
20260904020704 84 134 0.0 0.0 0.00 0.00 0.00 64 1010.8